Time,TemperatureF,DewpointF,PressureIn,WindDirection,WindDirectionDegrees,WindSpeedMPH,WindSpeedGustMPH,Humidity,HourlyPrecipIn,Conditions,Clouds,dailyrainin,SoftwareType,DateUTC
2013-01-20 00:03:00,4.0,-99.9,-100.00,NNW,338,2.0,12.0,-999,0.00,,,0.00,,2013-01-20 06:03:00,
2013-01-20 00:12:00,4.0,-99.9,-100.00,NNW,338,2.0,12.0,-999,0.00,,,0.00,,2013-01-20 06:12:00,
2013-01-20 00:22:00,4.0,-99.9,-100.00,NW,315,3.0,12.0,-999,0.00,,,0.00,,2013-01-20 06:22:00,
2013-01-20 00:34:00,4.0,-99.9,-100.00,NW,315,2.0,8.0,-999,0.00,,,0.00,,2013-01-20 06:34:00,
2013-01-20 00:43:00,4.0,-99.9,-100.00,NW,315,2.0,8.0,-999,0.00,,,0.00,,2013-01-20 06:43:00,
2013-01-20 00:53:00,4.0,-99.9,-100.00,NW,315,2.0,6.0,-999,0.00,,,0.00,,2013-01-20 06:53:00,
2013-01-20 01:02:00,5.0,-99.9,-100.00,NW,315,1.0,13.0,-999,0.00,,,0.00,,2013-01-20 07:02:00,
2013-01-20 01:12:00,5.0,-99.9,-100.00,NW,315,1.0,13.0,-999,0.00,,,0.00,,2013-01-20 07:12:00,
2013-01-20 01:22:00,5.0,-99.9,-100.00,NW,315,6.0,12.0,-999,0.00,,,0.00,,2013-01-20 07:22:00,
2013-01-20 01:32:00,5.0,-99.9,-100.00,NNW,338,2.0,14.0,-999,0.00,,,0.00,,2013-01-20 07:32:00,
2013-01-20 01:43:00,5.0,-99.9,-100.00,NNW,338,2.0,14.0,-999,0.00,,,0.00,,2013-01-20 07:43:00,
2013-01-20 01:53:00,5.0,-99.9,-100.00,NNW,338,2.0,10.0,-999,0.00,,,0.00,,2013-01-20 07:53:00,
2013-01-20 02:02:00,5.0,-99.9,-100.00,NNW,338,2.0,18.0,-999,0.00,,,0.00,,2013-01-20 08:02:00,
2013-01-20 02:12:00,5.0,-99.9,-100.00,NNW,338,2.0,18.0,-999,0.00,,,0.00,,2013-01-20 08:12:00,
2013-01-20 02:22:00,5.0,-99.9,-100.00,NNW,338,3.0,9.0,-999,0.00,,,0.00,,2013-01-20 08:22:00,
2013-01-20 02:32:00,5.0,-99.9,-100.00,NNW,338,2.0,12.0,-999,0.00,,,0.00,,2013-01-20 08:32:00,
2013-01-20 02:42:00,5.0,-99.9,-100.00,NNW,338,2.0,12.0,-999,0.00,,,0.00,,2013-01-20 08:42:00,
2013-01-20 02:53:00,5.0,-99.9,-100.00,NNW,338,5.0,16.0,-999,0.00,,,0.00,,2013-01-20 08:53:00,
2013-01-20 03:02:00,4.0,-99.9,-100.00,NNW,338,2.0,9.0,-999,0.00,,,0.00,,2013-01-20 09:02:00,
2013-01-20 03:12:00,4.0,-99.9,-100.00,NNW,338,2.0,9.0,-999,0.00,,,0.00,,2013-01-20 09:12:00,
2013-01-20 03:22:00,4.0,-99.9,-100.00,NNW,338,2.0,14.0,-999,0.00,,,0.00,,2013-01-20 09:22:00,
2013-01-20 03:33:00,4.0,-99.9,-100.00,North,0,2.0,13.0,-999,0.00,,,0.00,,2013-01-20 09:33:00,
2013-01-20 03:43:00,4.0,-99.9,-100.00,North,0,2.0,13.0,-999,0.00,,,0.00,,2013-01-20 09:43:00,
2013-01-20 03:53:00,4.0,-99.9,-100.00,North,0,2.0,10.0,-999,0.00,,,0.00,,2013-01-20 09:53:00,
2013-01-20 04:03:00,4.0,-99.9,-100.00,NNW,338,2.0,10.0,-999,0.00,,,0.00,,2013-01-20 10:03:00,
2013-01-20 04:12:00,4.0,-99.9,-100.00,NNW,338,2.0,10.0,-999,0.00,,,0.00,,2013-01-20 10:12:00,
2013-01-20 04:23:00,4.0,-99.9,-100.00,NNW,338,1.0,8.0,-999,0.00,,,0.00,,2013-01-20 10:23:00,
2013-01-20 04:33:00,4.0,-99.9,-100.00,NNW,338,2.0,12.0,-999,0.00,,,0.00,,2013-01-20 10:33:00,
2013-01-20 04:43:00,4.0,-99.9,-100.00,NNW,338,2.0,12.0,-999,0.00,,,0.00,,2013-01-20 10:43:00,
2013-01-20 04:53:00,4.0,-99.9,-100.00,NNW,338,1.0,12.0,-999,0.00,,,0.00,,2013-01-20 10:53:00,
2013-01-20 05:03:00,4.0,-99.9,-100.00,NW,315,6.0,13.0,-999,0.00,,,0.00,,2013-01-20 11:03:00,
2013-01-20 05:12:00,4.0,-99.9,-100.00,NW,315,6.0,13.0,-999,0.00,,,0.00,,2013-01-20 11:12:00,
2013-01-20 05:23:00,3.0,-99.9,-100.00,NNW,338,5.0,8.0,-999,0.00,,,0.00,,2013-01-20 11:23:00,
2013-01-20 05:33:00,2.0,-99.9,-100.00,NW,315,5.0,13.0,-999,0.00,,,0.00,,2013-01-20 11:33:00,
2013-01-20 05:43:00,2.0,-99.9,-100.00,NW,315,5.0,13.0,-999,0.00,,,0.00,,2013-01-20 11:43:00,
2013-01-20 05:54:00,1.0,-99.9,-100.00,NW,315,1.0,8.0,-999,0.00,,,0.00,,2013-01-20 11:54:00,
2013-01-20 06:34:00,-1.0,-99.9,-100.00,NW,315,2.0,12.0,-999,0.00,,,0.00,,2013-01-20 12:34:00,
2013-01-20 06:44:00,-1.0,-99.9,-100.00,NW,315,2.0,12.0,-999,0.00,,,0.00,,2013-01-20 12:44:00,
2013-01-20 06:53:00,-2.0,-99.9,-100.00,WNW,293,3.0,12.0,-999,0.00,,,0.00,,2013-01-20 12:53:00,
2013-01-20 07:03:00,-2.0,-99.9,-100.00,NW,315,1.0,10.0,-999,0.00,,,0.00,,2013-01-20 13:03:00,
2013-01-20 07:12:00,-2.0,-99.9,-100.00,NW,315,1.0,10.0,-999,0.00,,,0.00,,2013-01-20 13:12:00,
2013-01-20 07:23:00,-2.0,-99.9,-100.00,West,270,2.0,13.0,-999,0.00,,,0.00,,2013-01-20 13:23:00,
2013-01-20 07:34:00,-3.0,-99.9,-100.00,NW,315,2.0,18.0,-999,0.00,,,0.00,,2013-01-20 13:34:00,
2013-01-20 07:43:00,-3.0,-99.9,-100.00,NW,315,2.0,18.0,-999,0.00,,,0.00,,2013-01-20 13:43:00,
2013-01-20 07:53:00,-3.0,-99.9,-100.00,NW,315,5.0,16.0,-999,0.00,,,0.00,,2013-01-20 13:53:00,
2013-01-20 08:03:00,-3.0,-99.9,-100.00,WNW,293,3.0,15.0,-999,0.00,,,0.00,,2013-01-20 14:03:00,
2013-01-20 08:12:00,-3.0,-99.9,-100.00,WNW,293,3.0,15.0,-999,0.00,,,0.00,,2013-01-20 14:12:00,
2013-01-20 08:23:00,-3.0,-99.9,-100.00,WNW,293,2.0,13.0,-999,0.00,,,0.00,,2013-01-20 14:23:00,
2013-01-20 08:33:00,-3.0,-99.9,-100.00,WNW,293,3.0,14.0,-999,0.00,,,0.00,,2013-01-20 14:33:00,
2013-01-20 08:43:00,-3.0,-99.9,-100.00,WNW,293,3.0,14.0,-999,0.00,,,0.00,,2013-01-20 14:43:00,
2013-01-20 08:53:00,-3.0,-99.9,-100.00,NW,315,3.0,10.0,-999,0.00,,,0.00,,2013-01-20 14:53:00,
2013-01-20 09:04:00,-2.0,-99.9,-100.00,NW,315,6.0,15.0,-999,0.00,,,0.00,,2013-01-20 15:04:00,
2013-01-20 09:13:00,-2.0,-99.9,-100.00,NW,315,6.0,15.0,-999,0.00,,,0.00,,2013-01-20 15:13:00,
2013-01-20 09:23:00,-1.0,-99.9,-100.00,NW,315,5.0,9.0,-999,0.00,,,0.00,,2013-01-20 15:23:00,
2013-01-20 09:33:00,-1.0,-99.9,-100.00,NW,315,5.0,9.0,-999,0.00,,,0.00,,2013-01-20 15:33:00,
2013-01-20 09:43:00,-1.0,-99.9,-100.00,NW,315,5.0,9.0,-999,0.00,,,0.00,,2013-01-20 15:43:00,
2013-01-20 10:23:00,1.0,-99.9,-100.00,NW,315,2.0,9.0,-999,0.00,,,0.00,,2013-01-20 16:23:00,
2013-01-20 10:33:00,2.0,-99.9,-100.00,NW,315,5.0,10.0,-999,0.00,,,0.00,,2013-01-20 16:33:00,
2013-01-20 10:43:00,2.0,-99.9,-100.00,NW,315,5.0,10.0,-999,0.00,,,0.00,,2013-01-20 16:43:00,
2013-01-20 10:53:00,3.0,-99.9,-100.00,NW,315,3.0,9.0,-999,0.00,,,0.00,,2013-01-20 16:53:00,
2013-01-20 11:03:00,3.0,-99.9,-100.00,NW,315,5.0,12.0,-999,0.00,,,0.00,,2013-01-20 17:03:00,
2013-01-20 11:13:00,3.0,-99.9,-100.00,NW,315,5.0,12.0,-999,0.00,,,0.00,,2013-01-20 17:13:00,
2013-01-20 11:23:00,4.0,-99.9,-100.00,NW,315,6.0,12.0,-999,0.00,,,0.00,,2013-01-20 17:23:00,
2013-01-20 11:33:00,4.0,-99.9,-100.00,NNW,338,2.0,12.0,-999,0.00,,,0.00,,2013-01-20 17:33:00,
2013-01-20 11:43:00,4.0,-99.9,-100.00,NNW,338,2.0,12.0,-999,0.00,,,0.00,,2013-01-20 17:43:00,
2013-01-20 11:53:00,6.0,-99.9,-100.00,NNW,338,1.0,9.0,-999,0.00,,,0.00,,2013-01-20 17:53:00,
2013-01-20 12:03:00,6.0,-99.9,-100.00,NW,315,1.0,10.0,-999,0.00,,,0.00,,2013-01-20 18:03:00,
2013-01-20 12:13:00,6.0,-99.9,-100.00,NW,315,6.0,10.0,-999,0.00,,,0.00,,2013-01-20 18:13:00,
2013-01-20 12:24:00,6.0,-99.9,-100.00,NW,315,6.0,10.0,-999,0.00,,,0.00,,2013-01-20 18:24:00,
2013-01-20 12:33:00,6.0,-99.9,-100.00,NW,315,2.0,12.0,-999,0.00,,,0.00,,2013-01-20 18:33:00,
2013-01-20 12:43:00,6.0,-99.9,-100.00,NW,315,2.0,12.0,-999,0.00,,,0.00,,2013-01-20 18:43:00,
2013-01-20 12:53:00,6.0,-99.9,-100.00,NW,315,5.0,13.0,-999,0.00,,,0.00,,2013-01-20 18:53:00,
2013-01-20 13:03:00,8.0,-99.9,-100.00,NW,315,5.0,9.0,-999,0.00,,,0.00,,2013-01-20 19:03:00,
2013-01-20 13:13:00,8.0,-99.9,-100.00,NW,315,5.0,9.0,-999,0.00,,,0.00,,2013-01-20 19:13:00,
2013-01-20 13:23:00,8.0,-99.9,-100.00,NW,315,3.0,13.0,-999,0.00,,,0.00,,2013-01-20 19:23:00,
2013-01-20 13:33:00,8.0,-99.9,-100.00,NW,315,1.0,9.0,-999,0.00,,,0.00,,2013-01-20 19:33:00,
2013-01-20 13:43:00,8.0,-99.9,-100.00,NW,315,1.0,9.0,-999,0.00,,,0.00,,2013-01-20 19:43:00,
2013-01-20 13:53:00,7.0,-99.9,-100.00,NW,315,2.0,12.0,-999,0.00,,,0.00,,2013-01-20 19:53:00,
2013-01-20 14:03:00,7.0,-99.9,-100.00,WNW,293,2.0,10.0,-999,0.00,,,0.00,,2013-01-20 20:03:00,
2013-01-20 14:12:00,7.0,-99.9,-100.00,WNW,293,2.0,10.0,-999,0.00,,,0.00,,2013-01-20 20:12:00,
2013-01-20 14:23:00,7.0,-99.9,-100.00,WNW,293,2.0,9.0,-999,0.00,,,0.00,,2013-01-20 20:23:00,
2013-01-20 14:33:00,7.0,-99.9,-100.00,NW,315,3.0,10.0,-999,0.00,,,0.00,,2013-01-20 20:33:00,
2013-01-20 14:43:00,7.0,-99.9,-100.00,NW,315,3.0,10.0,-999,0.00,,,0.00,,2013-01-20 20:43:00,
2013-01-20 14:54:00,7.0,-99.9,-100.00,NW,315,5.0,12.0,-999,0.00,,,0.00,,2013-01-20 20:54:00,
2013-01-20 15:04:00,7.0,-99.9,-100.00,WNW,293,5.0,12.0,-999,0.00,,,0.00,,2013-01-20 21:04:00,
2013-01-20 15:13:00,7.0,-99.9,-100.00,WNW,293,5.0,12.0,-999,0.00,,,0.00,,2013-01-20 21:13:00,
2013-01-20 15:23:00,7.0,-99.9,-100.00,WNW,293,3.0,9.0,-999,0.00,,,0.00,,2013-01-20 21:23:00,
2013-01-20 15:34:00,7.0,-99.9,-100.00,West,270,3.0,12.0,-999,0.00,,,0.00,,2013-01-20 21:34:00,
2013-01-20 15:43:00,7.0,-99.9,-100.00,West,270,3.0,12.0,-999,0.00,,,0.00,,2013-01-20 21:43:00,
2013-01-20 15:54:00,6.0,-99.9,-100.00,West,270,0.0,7.0,-999,0.00,,,0.00,,2013-01-20 21:54:00,
2013-01-20 16:03:00,7.0,-99.9,-100.00,WNW,293,2.0,9.0,-999,0.00,,,0.00,,2013-01-20 22:03:00,
2013-01-20 16:13:00,7.0,-99.9,-100.00,WNW,293,2.0,9.0,-999,0.00,,,0.00,,2013-01-20 22:13:00,
2013-01-20 16:23:00,5.0,-99.9,-100.00,NW,315,1.0,10.0,-999,0.00,,,0.00,,2013-01-20 22:23:00,
2013-01-20 16:34:00,5.0,-99.9,-100.00,WNW,293,1.0,7.0,-999,0.00,,,0.00,,2013-01-20 22:34:00,
2013-01-20 16:43:00,5.0,-99.9,-100.00,WNW,293,1.0,7.0,-999,0.00,,,0.00,,2013-01-20 22:43:00,
2013-01-20 16:53:00,5.0,-99.9,-100.00,West,270,0.0,5.0,-999,0.00,,,0.00,,2013-01-20 22:53:00,
2013-01-20 17:03:00,3.0,-99.9,-100.00,WNW,293,0.0,3.0,-999,0.00,,,0.00,,2013-01-20 23:03:00,
2013-01-20 17:13:00,3.0,-99.9,-100.00,WNW,293,0.0,3.0,-999,0.00,,,0.00,,2013-01-20 23:13:00,
2013-01-20 17:23:00,3.0,-99.9,-100.00,NW,315,0.0,6.0,-999,0.00,,,0.00,,2013-01-20 23:23:00,
2013-01-20 17:33:00,2.0,-99.9,-100.00,NW,315,0.0,2.0,-999,0.00,,,0.00,,2013-01-20 23:33:00,
2013-01-20 17:43:00,2.0,-99.9,-100.00,NW,315,0.0,2.0,-999,0.00,,,0.00,,2013-01-20 23:43:00,
2013-01-20 17:53:00,1.0,-99.9,-100.00,NW,315,0.0,3.0,-999,0.00,,,0.00,,2013-01-20 23:53:00,
2013-01-20 18:03:00,1.0,-99.9,-100.00,NW,315,0.0,3.0,-999,0.00,,,0.00,,2013-01-21 00:03:00,
2013-01-20 18:13:00,1.0,-99.9,-100.00,NW,315,0.0,3.0,-999,0.00,,,0.00,,2013-01-21 00:13:00,
2013-01-20 19:23:00,-1.0,-99.9,-100.00,NW,315,0.0,6.0,-999,0.00,,,0.00,,2013-01-21 01:23:00,
2013-01-20 19:33:00,-1.0,-99.9,-100.00,WNW,293,0.0,3.0,-999,0.00,,,0.00,,2013-01-21 01:33:00,
2013-01-20 19:44:00,-1.0,-99.9,-100.00,WNW,293,0.0,3.0,-999,0.00,,,0.00,,2013-01-21 01:44:00,
2013-01-20 19:53:00,-2.0,-99.9,-100.00,NW,315,0.0,5.0,-999,0.00,,,0.00,,2013-01-21 01:53:00,
2013-01-20 20:03:00,-3.0,-99.9,-100.00,NW,315,1.0,3.0,-999,0.00,,,0.00,,2013-01-21 02:03:00,
2013-01-20 20:13:00,-3.0,-99.9,-100.00,NW,315,1.0,3.0,-999,0.00,,,0.00,,2013-01-21 02:13:00,
2013-01-20 20:23:00,-2.0,-99.9,-100.00,NW,315,2.0,7.0,-999,0.00,,,0.00,,2013-01-21 02:23:00,
2013-01-20 20:34:00,-2.0,-99.9,-100.00,WNW,293,1.0,6.0,-999,0.00,,,0.00,,2013-01-21 02:34:00,
2013-01-20 20:43:00,-2.0,-99.9,-100.00,WNW,293,1.0,6.0,-999,0.00,,,0.00,,2013-01-21 02:43:00,
2013-01-20 20:54:00,-2.0,-99.9,-100.00,WNW,293,1.0,6.0,-999,0.00,,,0.00,,2013-01-21 02:54:00,
2013-01-20 21:03:00,-2.0,-99.9,-100.00,WNW,293,1.0,6.0,-999,0.00,,,0.00,,2013-01-21 03:03:00,
2013-01-20 21:13:00,-2.0,-99.9,-100.00,WNW,293,1.0,6.0,-999,0.00,,,0.00,,2013-01-21 03:13:00,
2013-01-20 21:23:00,-4.0,-99.9,-100.00,NW,315,0.0,3.0,-999,0.00,,,0.00,,2013-01-21 03:23:00,
2013-01-20 21:33:00,-4.0,-99.9,-100.00,NW,315,0.0,2.0,-999,0.00,,,0.00,,2013-01-21 03:33:00,
2013-01-20 21:44:00,-4.0,-99.9,-100.00,NW,315,0.0,2.0,-999,0.00,,,0.00,,2013-01-21 03:44:00,
2013-01-20 21:54:00,-5.0,-99.9,-100.00,NW,315,0.0,1.0,-999,0.00,,,0.00,,2013-01-21 03:54:00,
2013-01-20 22:03:00,-5.0,-99.9,-100.00,NW,315,0.0,1.0,-999,0.00,,,0.00,,2013-01-21 04:03:00,
2013-01-20 22:13:00,-5.0,-99.9,-100.00,NW,315,0.0,1.0,-999,0.00,,,0.00,,2013-01-21 04:13:00,
2013-01-20 22:23:00,-5.0,-99.9,-100.00,NW,315,0.0,2.0,-999,0.00,,,0.00,,2013-01-21 04:23:00,
2013-01-20 22:33:00,-6.0,-99.9,-100.00,NW,315,0.0,1.0,-999,0.00,,,0.00,,2013-01-21 04:33:00,
2013-01-20 22:43:00,-6.0,-99.9,-100.00,NW,315,0.0,1.0,-999,0.00,,,0.00,,2013-01-21 04:43:00,
2013-01-20 22:53:00,-6.0,-99.9,-100.00,WNW,293,0.0,3.0,-999,0.00,,,0.00,,2013-01-21 04:53:00,
2013-01-20 23:04:00,-6.0,-99.9,-100.00,WNW,293,1.0,6.0,-999,0.00,,,0.00,,2013-01-21 05:04:00,
2013-01-20 23:13:00,-6.0,-99.9,-100.00,WNW,293,1.0,6.0,-999,0.00,,,0.00,,2013-01-21 05:13:00,
2013-01-20 23:23:00,-6.0,-99.9,-100.00,NW,315,0.0,3.0,-999,0.00,,,0.00,,2013-01-21 05:23:00,
2013-01-20 23:34:00,-6.0,-99.9,-100.00,West,270,0.0,5.0,-999,0.00,,,0.00,,2013-01-21 05:34:00,
2013-01-20 23:43:00,-6.0,-99.9,-100.00,West,270,0.0,5.0,-999,0.00,,,0.00,,2013-01-21 05:43:00,
2013-01-20 23:53:00,-6.0,-99.9,-100.00,WNW,293,1.0,7.0,-999,0.00,,,0.00,,2013-01-21 05:53:00,